Starlink 11676

operational
NORAD ID: 63757 Int'l Des: 2025-089 Owner: SPXS Country: US Constellation: starlink
LEOCIRCULAR

Über Starlink 11676

Beschreibung wird geladen...

Live-Position

3D-Globus wird geladen...

Nächste Überflüge

Höhenverlauf

Altitude vs Time

uPlot chart will show altitude changes over time

Zweizeiliger Elementsatz

1 63757U 25089G 25306.48094453 .00168107 00000-0 12819-2 0 9991
2 63757 42.9988 338.5889 0001165 297.5486 62.5264 15.70939672 30027
Epoch: 2. Nov. 2025 • Age: 29 hours

Aktueller Status

Höhe 367.8 km
Geschwindigkeit 7.69 km/s
Subsatellitenpunkt -43.10°S, 47.61°W
Startdatum 29. Apr. 2025
Alter 0.5 years
Typ internet

Technische Details

Klassifizierung Payload
Masse 960.00 kg
Trockenmasse 910.00 kg
Gesamtmasse 960.00 kg
Länge 0.30 m
Durchmesser 4.10 m
Spannweite 29.00 m
Form Box + pan
Hersteller SPXS
Bus-Typ Starlink V2MD
Phasenstatus In Orbit
Besitzer/Staat SPXS/US

Große Konstellationen

Loading constellations...